Mansfield, OH

1:52 PM EDT on June 26, 2017 (GMT -0400)
Mansfield Lahm Regional

Weather History for KMFD - January, 2013

Change the Weather History Date:

Saturday, January 26, 2013

  Actual Average Record
Temperature  
Mean Temperature 19 °F 26 °F  
Max Temperature 26 °F 33 °F 67 °F (1950)
Min Temperature 11 °F 18 °F -9 °F (1924)
Degree Days  
Heating Degree Days 46 39  
Month to date heating degree days 970 1030  
Since 1 July heating degree days 3172 3407  
Cooling Degree Days 0 0  
Month to date cooling degree days 0 0  
Year to date cooling degree days 0 0  
Moisture  
Dew Point 17 °F    
Average Humidity 76    
Maximum Humidity 92    
Minimum Humidity 60    
Precipitation  
Precipitation T in 0.09 in 1.71 in (1952)
Month to date precipitation 1.32 2.45  
Year to date precipitation 1.32 2.45  
Snow  
Snow T in 0.40 in - ()
Month to date snowfall 4.1 11.2  
Since 1 July snowfall 16.9 24.4  
Snow Depth 3.00 in    
Sea Level Pressure  
Sea Level Pressure 30.21 in    
Wind  
Wind Speed 6 mph (West)    
Max Wind Speed 15 mph    
Max Gust Speed 18 mph    
Visibility 7 miles    
Events Snow    
T = Trace of Precipitation, MM = Missing Value Source: NWS Daily Summary

Daily Weather History Graph

Daily Weather History Graph

Search for Another Location

Airport or City:

Trip Planner

Search our weather history database for the weather conditions in past years. The results will help you decide how hot, cold, wet, or windy it might be!

Date:

Astronomy

Jan. 26, 2013 Rise Set
Actual Time 7:45 AM EST 5:40 PM EST
Civil Twilight 7:15 AM EST 6:09 PM EST
Nautical Twilight 6:42 AM EST 6:43 PM EST
Astronomical Twilight 6:10 AM EST 7:15 PM EST
Moon 5:34 PM EST 7:02 AM EST
Length of Visible Light 10h 53m
Length of Day
9h 55m
Full, 100% of the Moon is Illuminated
Jan 26
Full
Jan 26
Full
Feb 3
Last Quarter
Feb 10
New
Feb 17
First Quarter

Hourly Weather History & Observations

Time (EST) Temp. Windchill Dew Point Humidity Pressure Visibility Wind Dir Wind Speed Gust Speed Precip Events Conditions
12:41 AM 19.4 °F 8.6 °F 17.6 °F 93% 30.03 in 4.0 mi SW 9.2 mph - 0.00 in Snow Light Snow
12:52 AM 21.0 °F 9.9 °F 18.0 °F 88% 30.10 in 3.0 mi SW 10.4 mph - 0.00 in Snow Light Snow
1:25 AM 21.2 °F 9.5 °F 17.6 °F 86% 30.04 in 6.0 mi SW 11.5 mph - 0.00 in   Overcast
1:32 AM 21.2 °F 11.7 °F 19.4 °F 93% 30.04 in 7.0 mi WSW 8.1 mph - 0.00 in   Overcast
1:52 AM 21.0 °F 11.4 °F 19.0 °F 92% 30.10 in 7.0 mi SW 8.1 mph - 0.00 in   Overcast
2:25 AM 21.2 °F 12.6 °F 19.4 °F 93% 30.05 in 7.0 mi WSW 6.9 mph - N/A   Overcast
2:48 AM 21.2 °F 11.7 °F 19.4 °F 93% 30.05 in 5.0 mi SW 8.1 mph - 0.00 in Snow Light Snow
2:52 AM 21.9 °F 12.5 °F 19.9 °F 92% 30.12 in 5.0 mi WSW 8.1 mph - 0.00 in Snow Light Snow
3:13 AM 21.2 °F 11.7 °F 19.4 °F 93% 30.06 in 4.0 mi SW 8.1 mph - 0.00 in Snow Light Snow
3:49 AM 21.2 °F 11.7 °F 19.4 °F 93% 30.06 in 5.0 mi SW 8.1 mph - 0.00 in   Overcast
3:52 AM 21.9 °F 12.5 °F 19.9 °F 92% 30.13 in 5.0 mi SW 8.1 mph - 0.00 in   Overcast
4:52 AM 23.0 °F 15.8 °F 19.9 °F 88% 30.13 in 6.0 mi WSW 5.8 mph - 0.00 in   Overcast
5:13 AM 23.0 °F 14.7 °F 19.4 °F 86% 30.07 in 7.0 mi WSW 6.9 mph - N/A   Overcast
5:52 AM 23.0 °F 17.0 °F 19.9 °F 88% 30.14 in 7.0 mi WSW 4.6 mph - N/A   Overcast
5:59 AM 21.2 °F 14.9 °F 19.4 °F 93% 30.08 in 6.0 mi WSW 4.6 mph - N/A   Overcast
6:23 AM 21.2 °F 11.7 °F 19.4 °F 93% 30.09 in 6.0 mi WSW 8.1 mph - N/A   Overcast
6:30 AM 21.2 °F 14.9 °F 19.4 °F 93% 30.09 in 6.0 mi WSW 4.6 mph - N/A   Overcast
6:44 AM 21.2 °F 14.9 °F 19.4 °F 93% 30.10 in 6.0 mi WSW 4.6 mph - N/A   Overcast
6:52 AM 21.9 °F 15.7 °F 19.9 °F 92% 30.16 in 6.0 mi West 4.6 mph - N/A   Overcast
7:12 AM 21.2 °F 14.9 °F 19.4 °F 93% 30.11 in 4.0 mi West 4.6 mph - 0.00 in Snow Light Snow
7:52 AM 21.9 °F 13.4 °F 19.9 °F 92% 30.19 in 3.0 mi West 6.9 mph - 0.00 in   Overcast
8:03 AM 21.2 °F 14.9 °F 19.4 °F 93% 30.14 in 2.5 mi WNW 4.6 mph - 0.00 in Snow Light Snow
8:28 AM 21.2 °F 13.6 °F 19.4 °F 93% 30.15 in 3.0 mi WNW 5.8 mph - 0.00 in   Overcast
8:52 AM 21.9 °F 12.5 °F 19.9 °F 92% 30.22 in 4.0 mi WNW 8.1 mph - 0.00 in   Overcast
9:40 AM 23.0 °F 14.7 °F 19.4 °F 86% 30.18 in 5.0 mi WNW 6.9 mph - N/A   Overcast
9:52 AM 23.0 °F 14.7 °F 18.0 °F 81% 30.25 in 6.0 mi WNW 6.9 mph - N/A   Haze
10:23 AM 23.0 °F 11.7 °F 17.6 °F 80% 30.20 in 6.0 mi NW 11.5 mph - N/A   Haze
10:35 AM 24.8 °F 13.4 °F 17.6 °F 74% 30.21 in 7.0 mi WNW 12.7 mph - N/A   Overcast
10:52 AM 24.1 °F 13.7 °F 17.1 °F 75% 30.27 in 8.0 mi NW 10.4 mph - N/A   Overcast
11:52 AM 24.1 °F 13.7 °F 15.1 °F 69% 30.30 in 10.0 mi WNW 10.4 mph - N/A   Partly Cloudy
12:52 PM 25.0 °F 15.5 °F 12.9 °F 60% 30.31 in 10.0 mi West 9.2 mph - N/A   Overcast
1:52 PM 24.1 °F 14.4 °F 12.9 °F 62% 30.31 in 10.0 mi WNW 9.2 mph - N/A   Overcast
2:52 PM 24.1 °F 14.4 °F 12.9 °F 62% 30.32 in 10.0 mi WNW 9.2 mph - N/A   Overcast
3:52 PM 23.0 °F 13.9 °F 12.9 °F 65% 30.35 in 10.0 mi WNW 8.1 mph 16.1 mph N/A   Overcast
4:06 PM 23.0 °F 12.4 °F 14.0 °F 68% 30.29 in 9.0 mi WNW 10.4 mph - N/A   Overcast
4:52 PM 21.9 °F 13.4 °F 15.1 °F 75% 30.36 in 4.0 mi West 6.9 mph - 0.00 in Snow Light Snow
5:52 PM 21.9 °F 17.2 °F 10.9 °F 63% 30.39 in 9.0 mi West 3.5 mph - 0.00 in Snow Light Snow
6:52 PM 21.9 °F - 12.0 °F 66% 30.42 in 10.0 mi Calm Calm - 0.00 in   Overcast
7:38 PM 21.2 °F - 12.2 °F 68% 30.37 in 10.0 mi Calm Calm - N/A   Overcast
7:52 PM 21.9 °F 17.2 °F 12.0 °F 66% 30.44 in 10.0 mi WNW 3.5 mph - N/A   Overcast
8:52 PM 18.0 °F - 10.0 °F 71% 30.43 in 10.0 mi Calm Calm - N/A   Clear
9:52 PM 16.0 °F - 10.9 °F 81% 30.45 in 10.0 mi Calm Calm - N/A   Clear
10:52 PM 12.0 °F 5.9 °F 9.0 °F 88% 30.46 in 10.0 mi South 3.5 mph - N/A   Clear
11:52 PM 14.0 °F - 10.9 °F 88% 30.47 in 8.0 mi Calm Calm - N/A   Clear